Weather History for Obihiro, Japan

Change the Weather History Date:

Saturday, December 8, 2012

  Actual Average Record
Temperature  
Mean Temperature 16 °F -  
Max Temperature 28 °F 26 °F 46 °F (1998)
Min Temperature 6 °F 10 °F 5 °F (2003)
Degree Days  
Heating Degree Days 49    
Moisture  
Dew Point 18 °F    
Average Humidity 87    
Maximum Humidity 100    
Minimum Humidity 62    
Precipitation  
Precipitation 0.00 in - - ()
Sea Level Pressure  
Sea Level Pressure 29.48 in    
Wind  
Wind Speed 4 mph ()    
Max Wind Speed 9 mph    
Max Gust Speed -    
Visibility 1.4 miles    
Events Snow    
Averages and records for this station are not official NWS values.
T = Trace of Precipitation, MM = Missing Value Source: Averaged Metar Reports

Daily Weather History Graph

Daily Weather History Graph

Search for Another Location

Airport:

Trip Planner

Search our weather history database for the weather conditions in past years. The results will help you decide how hot, cold, wet, or windy it might be!

Date:

Astronomy

Dec. 08, 2012 Rise Set
Actual Time 6:44 AM JST 3:53 PM JST
Civil Twilight 6:12 AM JST 4:25 PM JST
Nautical Twilight 5:37 AM JST 5:00 PM JST
Astronomical Twilight 5:03 AM JST 5:34 PM JST
Moon 12:19 AM JST (12/8) 12:07 PM JST (12/8)
Length of Visible Light 10h 12m
Length of Day
9h 08m
Waning Crescent, 34% of the Moon is Illuminated
Dec 8
Waning Crescent
Dec 13
New
Dec 20
First Quarter
Dec 28
Full
Jan 5
Last Quarter

Hourly Weather History & Observations

Time (JST) Temp. Windchill Dew Point Humidity Pressure Visibility Wind Dir Wind Speed Gust Speed Precip Events Conditions
8:00 AM 6.8 °F - 3.2 °F 85% 29.71 in 6.2 mi Variable 2.3 mph - N/A   Mostly Cloudy
9:00 AM 10.4 °F 4.0 °F 3.2 °F 73% 29.71 in 6.2 mi WNW 3.5 mph - N/A   Scattered Clouds
10:00 AM 15.8 °F - 5.0 °F 62% 29.71 in 6.2 mi Variable 1.2 mph - N/A   Mostly Cloudy
11:00 AM 17.6 °F 9.3 °F 8.6 °F 68% 29.65 in 6.2 mi NNW 5.8 mph - N/A   Partly Cloudy
12:00 PM 19.4 °F 12.8 °F 8.6 °F 63% 29.59 in 6.2 mi NNW 4.6 mph - N/A Snow Light Snow Showers
12:26 PM 21.2 °F - 10.4 °F 63% 29.59 in - Variable 2.3 mph - N/A Snow Light Snow Showers
12:28 PM 21.2 °F - 10.4 °F 63% 29.56 in - Variable 2.3 mph - N/A Snow Light Snow Showers
12:31 PM 19.4 °F 14.3 °F 12.2 °F 74% 29.56 in 1.4 mi NW 3.5 mph - N/A Snow Light Snow Showers
12:37 PM 19.4 °F 12.8 °F 12.2 °F 74% 29.56 in 1.2 mi NNW 4.6 mph - N/A Snow Light Snow Showers
1:00 PM 19.4 °F 14.3 °F 15.8 °F 86% 29.56 in 0.9 mi WNW 3.5 mph - N/A Snow Light Snow Showers
1:11 PM 19.4 °F 14.3 °F 17.6 °F 93% 29.56 in 0.9 mi WNW 3.5 mph - N/A Snow Light Snow Showers
1:48 PM 21.2 °F 14.9 °F 17.6 °F 86% 29.53 in 0.6 mi NNW 4.6 mph - N/A Snow Snow Showers
2:00 PM 21.2 °F 10.9 °F 17.6 °F 86% 29.53 in 0.4 mi NNW 9.2 mph - N/A Snow Snow Showers
2:21 PM 21.2 °F 13.6 °F 17.6 °F 86% 29.50 in 0.4 mi NW 5.8 mph - N/A Snow Snow Showers
2:24 PM 21.2 °F 14.9 °F 17.6 °F 86% 29.50 in 0.4 mi NW 4.6 mph - N/A Snow Snow Showers
2:26 PM 21.2 °F 14.9 °F 17.6 °F 86% 29.50 in 0.3 mi NW 4.6 mph - N/A Snow Snow Showers
2:32 PM 21.2 °F 14.9 °F 19.4 °F 93% 29.50 in 0.4 mi WNW 4.6 mph - N/A Snow Snow Showers
3:00 PM 21.2 °F 16.4 °F 19.4 °F 93% 29.50 in 0.3 mi WNW 3.5 mph - N/A Snow Snow Showers
3:24 PM 21.2 °F 16.4 °F 19.4 °F 93% 29.50 in 0.4 mi WNW 3.5 mph - N/A Snow Snow Showers
3:28 PM 21.2 °F 16.4 °F 19.4 °F 93% 29.50 in 0.4 mi WNW 3.5 mph - N/A Snow Snow Showers
4:00 PM 23.0 °F 17.0 °F 19.4 °F 86% 29.47 in 0.3 mi NW 4.6 mph - N/A Snow Snow Showers
4:15 PM 23.0 °F 18.4 °F 21.2 °F 93% 29.47 in 0.3 mi NW 3.5 mph - N/A Snow Snow Showers
4:17 PM 23.0 °F 17.0 °F 21.2 °F 93% 29.47 in 0.3 mi NW 4.6 mph - N/A Snow Snow Showers
4:22 PM 23.0 °F 18.4 °F 21.2 °F 93% 29.47 in 0.3 mi WNW 3.5 mph - N/A Snow Snow Showers
5:00 PM 23.0 °F 17.0 °F 21.2 °F 93% 29.44 in 0.2 mi NW 4.6 mph - N/A Snow Snow Showers
5:16 PM 23.0 °F 17.0 °F 23.0 °F 100% 29.44 in 0.2 mi NW 4.6 mph - N/A Snow Snow Showers
5:21 PM 23.0 °F 17.0 °F 21.2 °F 93% 29.44 in 0.2 mi WNW 4.6 mph - N/A Snow Snow Showers
5:29 PM 23.0 °F 15.8 °F 21.2 °F 93% 29.42 in 0.2 mi NW 5.8 mph - N/A Snow Snow Showers
6:00 PM 24.8 °F 16.9 °F 23.0 °F 93% 29.39 in 0.3 mi NW 6.9 mph - N/A Snow Snow Showers
6:47 PM 24.8 °F 16.9 °F 24.8 °F 100% 29.36 in 0.5 mi NW 6.9 mph - N/A Snow Snow Showers
7:00 PM 24.8 °F 16.9 °F 23.0 °F 93% 29.36 in 0.7 mi NW 6.9 mph - N/A Snow Light Snow Showers
7:20 PM 26.6 °F 19.1 °F 24.8 °F 93% 29.33 in 0.9 mi WNW 6.9 mph - N/A Snow Light Snow Showers
7:24 PM 26.6 °F 19.1 °F 24.8 °F 93% 29.33 in 1.0 mi WNW 6.9 mph - N/A Snow Light Snow Showers
7:32 PM 26.6 °F 19.1 °F 24.8 °F 93% 29.33 in 1.5 mi NW 6.9 mph - N/A Snow Light Snow Showers
7:37 PM 26.6 °F 19.1 °F 24.8 °F 93% 29.33 in - WNW 6.9 mph - N/A Snow Light Snow Showers
8:00 PM 26.6 °F 18.2 °F 24.8 °F 93% 29.33 in 1.4 mi NW 8.1 mph - N/A Snow Light Snow Showers
8:14 PM 26.6 °F 19.1 °F 26.6 °F 100% 29.33 in 0.9 mi WNW 6.9 mph - N/A Snow Light Snow Showers
8:29 PM 28.4 °F 21.2 °F 26.6 °F 93% 29.33 in 0.9 mi West 6.9 mph - N/A Snow Light Snow Showers